FW4701 Weather Reports


Display with metric or nautical units.
time (UTC)temp
F
wind
direction
speed
MPH
gust
MPH
rain 1hr
in
rain 24hr
in
rain mn
in
humidity
%
barometer
mb
20260904201003 95 192 2.0 6.0 0.00 0.00 0.00 58 1014.1
20260904200503 95 165 2.0 7.0 0.00 0.00 0.00 59 1014.2
20260904200033 98 87 9.0 13.0 0.00 0.00 0.00 26 1012.2
20260904200016 94 90 2.0 8.0 0.00 0.00 0.00 58 1014.3
20260904195504 94 166 5.0 8.0 0.00 0.00 0.00 60 1014.4
20260904195006 94 173 2.0 7.0 0.00 0.00 0.00 63 1014.4
20260904194528 97 115 5.0 15.0 0.00 0.00 0.00 29 1012.3
20260904194513 93 109 2.0 7.0 0.00 0.00 0.00 62 1014.4
20260904194010 93 111 2.0 6.0 0.00 0.00 0.00 63 1014.5
20260904193508 93 99 1.0 7.0 0.00 0.00 0.00 63 1014.6
20260904193027 98 90 4.0 9.0 0.00 0.00 0.00 29 1012.6
20260904193020 94 119 3.0 7.0 0.00 0.00 0.00 63 1014.6
20260904192512 93 165 2.0 8.0 0.00 0.00 0.00 63 1014.6
20260904192009 93 111 2.0 8.0 0.00 0.00 0.00 64 1014.7
20260904191522 96 138 0.0 9.0 0.00 0.00 0.00 35 1012.9
20260904191520 93 142 1.0 7.0 0.00 0.00 0.00 64 1014.8
20260904191009 93 5 2.0 7.0 0.00 0.00 0.00 66 1014.9
20260904190510 92 117 4.0 8.0 0.00 0.00 0.00 64 1015.1
20260904190021 94 110 0.0 9.0 0.00 0.00 0.00 34 1013.1
20260904185504 92 283 3.0 11.0 0.00 0.00 0.00 64 1015.2
20260904185004 92 96 4.0 11.0 0.00 0.00 0.00 66 1015.3
20260904184517 95 113 4.0 10.0 0.00 0.00 0.00 35 1013.2
20260904184510 91 88 2.0 7.0 0.00 0.00 0.00 68 1015.4
20260904184007 90 94 2.0 12.0 0.00 0.00 0.00 67 1015.4
20260904183508 90 30 3.0 12.0 0.00 0.00 0.00 65 1015.5
20260904183016 95 210 0.0 5.0 0.00 0.00 0.00 36 1013.4
20260904182508 91 49 2.0 6.0 0.00 0.00 0.00 66 1015.8
20260904182014 91 68 2.0 6.0 0.00 0.00 0.00 66 1015.9
20260904181538 96 95 1.0 8.0 0.00 0.00 0.00 35 1013.6
20260904181527 91 9 2.0 6.0 0.00 0.00 0.00 65 1016.0
20260904181012 92 49 1.0 6.0 0.00 0.00 0.00 63 1016.2
20260904180509 92 10 2.0 5.0 0.00 0.00 0.00 62 1016.2
20260904180024 92 22 1.0 7.0 0.00 0.00 0.00 61 1016.3
20260904180012 97 116 0.0 3.0 0.00 0.00 0.00 31 1013.9
20260904175509 92 5 2.0 9.0 0.00 0.00 0.00 65 1016.3
20260904175010 92 36 2.0 10.0 0.00 0.00 0.00 63 1016.4
20260904174510 92 46 3.0 10.0 0.00 0.00 0.00 64 1016.5
20260904174506 96 109 0.0 4.0 0.00 0.00 0.00 33 1014.0
20260904174006 91 46 2.0 8.0 0.00 0.00 0.00 63 1016.5
20260904173505 91 71 3.0 8.0 0.00 0.00 0.00 64 1016.4
20260904173104 95 141 0.0 3.0 0.00 0.00 0.00 34 1014.2
20260904173013 91 297 2.0 8.0 0.00 0.00 0.00 64 1016.4
20260904172508 91 65 2.0 8.0 0.00 0.00 0.00 64 1016.4
20260904172007 91 349 2.0 4.0 0.00 0.00 0.00 64 1016.4
20260904171608 94 134 0.0 4.0 0.00 0.00 0.00 35 1014.3
20260904171515 91 360 1.0 5.0 0.00 0.00 0.00 66 1016.5
20260904171009 91 5 1.0 6.0 0.00 0.00 0.00 64 1016.4
20260904170511 91 22 2.0 7.0 0.00 0.00 0.00 64 1016.5
20260904170053 93 214 1.0 5.0 0.00 0.00 0.00 39 1014.5
20260904170039 91 69 2.0 7.0 0.00 0.00 0.00 64 1016.5
20260904165511 91 47 1.0 8.0 0.00 0.00 0.00 63 1016.4
20260904165012 91 5 3.0 8.0 0.00 0.00 0.00 62 1016.5
20260904164550 92 155 0.0 6.0 0.00 0.00 0.00 41 1014.6
20260904164519 92 255 1.0 5.0 0.00 0.00 0.00 65 1016.4
20260904164011 91 277 2.0 7.0 0.00 0.00 0.00 61 1016.4
20260904163508 91 9 2.0 7.0 0.00 0.00 0.00 61 1016.4
20260904163047 92 210 1.0 6.0 0.00 0.00 0.00 42 1014.7
20260904163010 91 64 1.0 5.0 0.00 0.00 0.00 66 1016.3
20260904162508 91 360 2.0 5.0 0.00 0.00 0.00 63 1016.3
20260904162004 91 309 1.0 4.0 0.00 0.00 0.00 65 1016.3
20260904161541 89 186 0.0 4.0 0.00 0.00 0.00 47 1014.7
20260904161519 91 241 1.0 4.0 0.00 0.00 0.00 65 1016.2
20260904161010 90 260 1.0 4.0 0.00 0.00 0.00 67 1016.1
20260904160511 90 26 2.0 4.0 0.00 0.00 0.00 67 1016.2
20260904160036 87 165 0.0 2.0 0.00 0.00 0.00 51 1014.6
20260904160022 89 298 1.0 5.0 0.00 0.00 0.00 66 1016.1
20260904155511 89 346 2.0 6.0 0.00 0.00 0.00 68 1015.9
20260904155014 88 286 1.0 6.0 0.00 0.00 0.00 69 1015.9
20260904154544 86 220 0.0 5.0 0.00 0.00 0.00 49 1014.5
20260904154523 87 191 2.0 6.0 0.00 0.00 0.00 71 1015.8
20260904154011 87 313 2.0 6.0 0.00 0.00 0.00 70 1015.9
20260904153511 86 277 1.0 3.0 0.00 0.00 0.00 71 1015.8
20260904153033 87 205 0.0 5.0 0.00 0.00 0.00 52 1014.5
20260904153027 86 170 1.0 4.0 0.00 0.00 0.00 70 1015.9
20260904152511 86 163 1.0 4.0 0.00 0.00 0.00 69 1015.9
20260904152003 86 271 1.0 4.0 0.00 0.00 0.00 70 1016.0
20260904151529 86 195 0.0 3.0 0.00 0.00 0.00 53 1014.4
20260904151513 86 278 0.0 7.0 0.00 0.00 0.00 70 1016.0
20260904151009 86 250 1.0 7.0 0.00 0.00 0.00 70 1016.0
20260904150507 86 288 1.0 3.0 0.00 0.00 0.00 69 1016.1
20260904150026 86 204 3.0 7.0 0.00 0.00 0.00 54 1014.5
20260904150016 86 257 1.0 5.0 0.00 0.00 0.00 69 1016.1
20260904145513 87 274 1.0 6.0 0.00 0.00 0.00 68 1016.1
20260904145012 87 224 2.0 6.0 0.00 0.00 0.00 67 1016.2
20260904144523 86 198 0.0 2.0 0.00 0.00 0.00 50 1014.5
20260904144012 88 237 1.0 6.0 0.00 0.00 0.00 67 1016.2
20260904143510 88 221 3.0 7.0 0.00 0.00 0.00 66 1016.0
20260904143029 82 220 0.0 4.0 0.00 0.00 0.00 53 1014.4
20260904143024 87 5 1.0 7.0 0.00 0.00 0.00 69 1016.0
20260904142512 87 262 2.0 7.0 0.00 0.00 0.00 69 1015.8
20260904142015 87 237 1.0 6.0 0.00 0.00 0.00 69 1015.7
20260904141527 86 286 1.0 6.0 0.00 0.00 0.00 69 1015.7
20260904141512 81 158 0.0 3.0 0.00 0.00 0.00 44 1014.3
20260904141004 86 258 1.0 6.0 0.00 0.00 0.00 70 1015.5
20260904140508 86 246 2.0 8.0 0.00 0.00 0.00 71 1015.5
20260904140019 79 119 2.0 6.0 0.00 0.00 0.00 42 1014.4
20260904140015 86 233 2.0 8.0 0.00 0.00 0.00 71 1015.6
20260904135510 85 210 1.0 5.0 0.00 0.00 0.00 72 1015.6
20260904135011 85 279 1.0 5.0 0.00 0.00 0.00 74 1015.5
20260904134524 84 229 1.0 7.0 0.00 0.00 0.00 74 1015.4
20260904134503 78 115 0.0 1.0 0.00 0.00 0.00 42 1014.3
20260904134009 84 234 2.0 7.0 0.00 0.00 0.00 74 1015.3
20260904133514 83 296 1.0 3.0 0.00 0.00 0.00 77 1015.5
20260904133027 82 183 0.0 3.0 0.00 0.00 0.00 80 1015.4
20260904133001 78 115 1.0 3.0 0.00 0.00 0.00 42 1014.2
20260904132514 81 174 0.0 3.0 0.00 0.00 0.00 80 1015.4
20260904132003 80 242 0.0 4.0 0.00 0.00 0.00 82 1015.4
20260904131601 78 115 0.0 0.0 0.00 0.00 0.00 43 1014.0
20260904131508 79 251 0.0 4.0 0.00 0.00 0.00 82 1015.3
20260904131003 78 220 0.0 4.0 0.00 0.00 0.00 83 1015.2
20260904130504 78 210 0.0 4.0 0.00 0.00 0.00 84 1015.2
20260904130054 0 0.0 0.0 0.00 0.00 0.00 1013.9
20260904130017 78 225 2.0 4.0 0.00 0.00 0.00 84 1015.1
20260904125507 77 239 1.0 7.0 0.00 0.00 0.00 86 1015.1
20260904125012 76 244 1.0 7.0 0.00 0.00 0.00 86 1015.0
20260904124549 0 0.0 0.0 0.00 0.00 0.00 1013.7
20260904124523 76 184 1.0 5.0 0.00 0.00 0.00 87 1014.9
20260904124009 76 188 1.0 5.0 0.00 0.00 0.00 88 1014.8
20260904123514 75 247 2.0 5.0 0.00 0.00 0.00 88 1014.8
20260904123044 0 0.0 0.0 0.00 0.00 0.00 1013.6
20260904123026 75 194 1.0 5.0 0.00 0.00 0.00 89 1014.7
20260904122514 75 195 1.0 4.0 0.00 0.00 0.00 89 1014.6
20260904122012 75 165 1.0 5.0 0.00 0.00 0.00 89 1014.5
20260904121538 0 0.0 0.0 0.00 0.00 0.00 1013.2
20260904121530 74 184 3.0 5.0 0.00 0.00 0.00 90 1014.4
20260904121003 74 188 1.0 4.0 0.00 0.00 0.00 90 1014.3
20260904120503 74 196 1.0 5.0 0.00 0.00 0.00 90 1014.3
20260904120044 0 0.0 0.0 0.00 0.00 0.00 1013.1
20260904120016 74 212 3.0 5.0 0.00 0.00 0.00 90 1014.2
20260904115507 74 199 2.0 5.0 0.00 0.00 0.00 90 1014.1
20260904115004 74 199 2.0 5.0 0.00 0.00 0.00 89 1014.1
20260904114528 0 0.0 0.0 0.00 0.00 0.00 1013.1
20260904114514 74 178 2.0 5.0 0.00 0.00 0.00 89 1014.0
20260904114010 74 184 2.0 5.0 0.00 0.00 0.00 89 1014.1
20260904113508 74 187 2.0 5.0 0.00 0.00 0.00 89 1014.0
20260904113029 74 198 2.0 5.0 0.00 0.00 0.00 89 1014.0
20260904113021 0 0.0 0.0 0.00 0.00 0.00 1012.9
20260904112514 74 213 2.0 5.0 0.00 0.00 0.00 89 1014.1
20260904112017 74 208 2.0 5.0 0.00 0.00 0.00 89 1014.0
20260904111529 74 203 2.0 5.0 0.00 0.00 0.00 89 1014.1
20260904111517 0 0.0 0.0 0.00 0.00 0.00 1012.7
20260904111015 74 190 2.0 5.0 0.00 0.00 0.00 89 1014.1
20260904110514 75 208 3.0 5.0 0.00 0.00 0.00 89 1014.1
20260904110013 0 0.0 0.0 0.00 0.00 0.00 1012.8
20260904110009 75 180 2.0 6.0 0.00 0.00 0.00 89 1014.0
20260904105503 75 194 2.0 6.0 0.00 0.00 0.00 89 1014.1
20260904105003 75 202 2.0 6.0 0.00 0.00 0.00 88 1014.2
20260904104520 75 191 2.0 6.0 0.00 0.00 0.00 88 1014.3
20260904104507 0 0.0 0.0 0.00 0.00 0.00 1012.7
20260904104007 75 203 1.0 5.0 0.00 0.00 0.00 88 1014.3
20260904103509 75 222 2.0 5.0 0.00 0.00 0.00 88 1014.4
20260904103024 75 213 2.0 5.0 0.00 0.00 0.00 88 1014.4
20260904103011 0 117 0.0 3.0 0.00 0.00 0.00 56 1012.5
20260904102512 75 196 2.0 5.0 0.00 0.00 0.00 88 1014.4
20260904102009 75 198 2.0 4.0 0.00 0.00 0.00 88 1014.4
20260904101559 76 117 0.0 0.0 0.00 0.00 0.00 60 1012.4
20260904101527 75 192 1.0 4.0 0.00 0.00 0.00 88 1014.4
20260904101012 75 200 1.0 4.0 0.00 0.00 0.00 88 1014.5
20260904100517 75 231 0.0 4.0 0.00 0.00 0.00 88 1014.5
20260904100055 77 117 0.0 1.0 0.00 0.00 0.00 61 1012.4
20260904100030 75 200 1.0 5.0 0.00 0.00 0.00 88 1014.5
20260904095516 76 169 0.0 5.0 0.00 0.00 0.00 88 1014.5
20260904095003 76 239 1.0 6.0 0.00 0.00 0.00 88 1014.5
20260904094552 77 117 0.0 1.0 0.00 0.00 0.00 63 1012.5
20260904094514 76 186 2.0 6.0 0.00 0.00 0.00 88 1014.5
20260904094004 76 202 1.0 5.0 0.00 0.00 0.00 88 1014.6
20260904093508 76 191 2.0 6.0 0.00 0.00 0.00 87 1014.6
20260904093053 78 117 0.0 3.0 0.00 0.00 0.00 63 1012.6
20260904093047 76 250 1.0 6.0 0.00 0.00 0.00 87 1014.5
20260904092511 76 214 2.0 5.0 0.00 0.00 0.00 87 1014.6
20260904092011 76 173 2.0 5.0 0.00 0.00 0.00 87 1014.6
20260904091546 78 117 0.0 5.0 0.00 0.00 0.00 63 1012.7
20260904091525 76 206 1.0 6.0 0.00 0.00 0.00 87 1014.6
20260904091013 77 193 3.0 6.0 0.00 0.00 0.00 86 1014.5
20260904090514 77 225 1.0 7.0 0.00 0.00 0.00 86 1014.5
20260904090044 78 109 4.0 6.0 0.00 0.00 0.00 63 1012.7
20260904090028 77 178 1.0 7.0 0.00 0.00 0.00 86 1014.5
20260904085516 77 176 3.0 7.0 0.00 0.00 0.00 86 1014.5
20260904085015 77 309 3.0 7.0 0.00 0.00 0.00 86 1014.5
20260904084544 78 113 4.0 7.0 0.00 0.00 0.00 63 1012.6
20260904084530 77 189 3.0 8.0 0.00 0.00 0.00 86 1014.4
20260904084018 77 213 3.0 9.0 0.00 0.00 0.00 86 1014.4
20260904083503 77 185 3.0 9.0 0.00 0.00 0.00 86 1014.5
20260904083040 78 111 6.0 9.0 0.00 0.00 0.00 63 1012.5
20260904083013 77 178 4.0 8.0 0.00 0.00 0.00 86 1014.4
20260904082509 77 190 2.0 6.0 0.00 0.00 0.00 86 1014.3
20260904082009 78 175 2.0 6.0 0.00 0.00 0.00 86 1014.2
20260904081537 78 109 6.0 9.0 0.00 0.00 0.00 63 1012.5
20260904081521 78 209 3.0 8.0 0.00 0.00 0.00 86 1014.1
20260904081010 78 220 2.0 8.0 0.00 0.00 0.00 86 1014.3
20260904080510 78 180 2.0 7.0 0.00 0.00 0.00 86 1014.3
20260904080037 78 120 3.0 9.0 0.00 0.00 0.00 63 1012.5
20260904080024 78 196 3.0 6.0 0.00 0.00 0.00 86 1014.3
20260904075512 78 209 3.0 6.0 0.00 0.00 0.00 86 1014.3
20260904075015 78 180 3.0 7.0 0.00 0.00 0.00 86 1014.2
20260904074541 78 130 6.0 8.0 0.00 0.00 0.00 63 1012.6
20260904074528 78 203 3.0 7.0 0.00 0.00 0.00 86 1014.2
20260904074019 78 173 2.0 6.0 0.00 0.00 0.00 86 1014.2
20260904073516 78 215 3.0 6.0 0.00 0.00 0.00 86 1014.3
20260904073048 78 195 2.0 4.0 0.00 0.00 0.00 86 1014.3
20260904073035 78 124 4.0 8.0 0.00 0.00 0.00 63 1012.7
20260904072506 78 180 2.0 5.0 0.00 0.00 0.00 86 1014.3
20260904072006 78 169 2.0 5.0 0.00 0.00 0.00 86 1014.3
20260904071529 78 123 3.0 6.0 0.00 0.00 0.00 63 1012.7
20260904071516 78 155 2.0 5.0 0.00 0.00 0.00 86 1014.4
20260904071010 78 202 2.0 5.0 0.00 0.00 0.00 86 1014.5
20260904070508 78 209 2.0 5.0 0.00 0.00 0.00 86 1014.5
20260904070027 78 119 0.0 5.0 0.00 0.00 0.00 63 1012.7
20260904070023 78 207 3.0 5.0 0.00 0.00 0.00 86 1014.7
20260904065515 78 191 2.0 5.0 0.00 0.00 0.00 86 1014.7
20260904065014 79 201 2.0 5.0 0.00 0.00 0.00 86 1014.8
20260904064529 79 173 2.0 5.0 0.00 0.00 0.00 86 1014.9
20260904064014 79 194 2.0 4.0 0.00 0.00 0.00 86 1014.9
20260904063515 79 205 1.0 4.0 0.00 0.00 0.00 86 1015.0
20260904063031 79 190 1.0 4.0 0.00 0.00 0.00 86 1015.0
20260904063029 78 135 4.0 8.0 0.00 0.00 0.00 63 1012.7
20260904062522 79 192 2.0 5.0 0.00 0.00 0.00 86 1015.0
20260904062018 79 205 1.0 6.0 0.00 0.00 0.00 86 1015.0
20260904061518 78 141 6.0 11.0 0.00 0.00 0.00 63 1012.5
20260904061514 79 166 2.0 6.0 0.00 0.00 0.00 86 1015.0
20260904061008 79 172 2.0 4.0 0.00 0.00 0.00 86 1015.1
20260904060508 79 194 1.0 5.0 0.00 0.00 0.00 86 1015.2
20260904060020 79 194 1.0 5.0 0.00 0.00 0.00 87 1015.3
20260904060017 79 115 5.0 10.0 0.00 0.00 0.00 63 1012.7
20260904055511 79 164 1.0 6.0 0.00 0.00 0.00 87 1015.1
20260904055010 79 180 1.0 6.0 0.00 0.00 0.00 87 1015.1
20260904054527 79 157 2.0 4.0 0.00 0.00 0.00 87 1015.0
20260904054516 79 128 5.0 10.0 0.00 0.00 0.00 63 1012.6
20260904054012 79 184 1.0 5.0 0.00 0.00 0.00 87 1015.1
20260904053514 79 191 2.0 5.0 0.00 0.00 0.00 87 1015.0
20260904053033 79 234 1.0 5.0 0.00 0.00 0.00 87 1015.0
20260904053017 79 104 5.0 10.0 0.00 0.00 0.00 63 1012.7
20260904052515 79 173 0.0 5.0 0.00 0.00 0.00 87 1015.0
20260904052016 79 196 0.0 5.0 0.00 0.00 0.00 87 1014.9
20260904051531 79 165 1.0 5.0 0.00 0.00 0.00 87 1014.9
20260904051509 79 117 7.0 11.0 0.00 0.00 0.00 63 1012.6
20260904051016 79 152 1.0 4.0 0.00 0.00 0.00 86 1014.9
20260904050517 79 150 0.0 2.0 0.00 0.00 0.00 86 1014.9
20260904050018 79 89 0.0 0.0 0.00 0.00 0.00 86 1015.0
20260904050005 79 129 8.0 13.0 0.00 0.00 0.00 63 1012.7
20260904045508 79 89 0.0 0.0 0.00 0.00 0.00 85 1015.1
20260904045013 79 89 0.0 0.0 0.00 0.00 0.00 85 1015.1
20260904044524 79 89 0.0 0.0 0.00 0.00 0.00 85 1015.0
20260904044501 79 110 8.0 12.0 0.00 0.00 0.00 64 1012.6
20260904044014 79 89 0.0 0.0 0.00 0.00 0.00 84 1015.0
20260904043511 79 89 0.0 0.0 0.00 0.00 0.00 84 1015.0
20260904043108 79 105 9.0 13.0 0.00 0.00 0.00 64 1012.6
20260904043027 79 89 0.0 0.0 0.00 0.00 0.00 84 1015.1
20260904042515 79 89 0.0 1.0 0.00 0.00 0.00 83 1015.1
20260904042004 79 89 0.0 2.0 0.00 0.00 0.00 82 1015.1
20260904041558 79 98 9.0 14.0 0.00 0.00 0.00 63 1012.3
20260904041507 79 89 0.0 2.0 0.00 0.00 0.00 82 1015.2
20260904041003 79 89 0.0 1.0 0.00 0.00 0.00 81 1015.2
20260904040506 79 89 0.0 0.0 0.00 0.00 0.00 81 1015.2
20260904040054 80 117 7.0 13.0 0.00 0.00 0.00 63 1012.4
20260904040011 80 89 0.0 0.0 0.00 0.00 0.00 81 1015.3
20260904035508 80 89 0.0 0.0 0.00 0.00 0.00 80 1015.2
20260904035007 80 89 0.0 0.0 0.00 0.00 0.00 79 1015.2
20260904034552 80 115 9.0 13.0 0.00 0.00 0.00 63 1012.4
20260904034526 80 89 0.0 0.0 0.00 0.00 0.00 79 1015.2
20260904034012 81 89 0.0 0.0 0.00 0.00 0.00 79 1015.1
20260904033503 81 89 0.0 1.0 0.00 0.00 0.00 77 1015.1
20260904033051 80 111 8.0 12.0 0.00 0.00 0.00 62 1012.3
20260904033004 81 89 0.0 1.0 0.00 0.00 0.00 77 1015.1
20260904032506 81 89 0.0 1.0 0.00 0.00 0.00 76 1015.1
20260904032003 81 89 0.0 1.0 0.00 0.00 0.00 77 1015.1
20260904031550 80 106 6.0 12.0 0.00 0.00 0.00 61 1012.2
20260904031507 81 89 0.0 1.0 0.00 0.00 0.00 76 1015.0
20260904031003 81 89 0.0 1.0 0.00 0.00 0.00 76 1015.1
20260904030504 81 89 0.0 1.0 0.00 0.00 0.00 76 1015.1
20260904030045 81 136 7.0 14.0 0.00 0.00 0.00 61 1012.0
20260904030012 81 89 0.0 1.0 0.00 0.00 0.00 76 1015.1
20260904025504 81 89 0.0 3.0 0.00 0.00 0.00 76 1015.1
20260904025007 82 89 0.0 3.0 0.00 0.00 0.00 76 1015.1
20260904024542 81 126 8.0 15.0 0.00 0.00 0.00 61 1011.9
20260904024520 82 89 1.0 3.0 0.00 0.00 0.00 76 1015.0
20260904024008 82 89 0.0 6.0 0.00 0.00 0.00 75 1015.0
20260904023509 83 80 2.0 6.0 0.00 0.00 0.00 75 1014.9
20260904023039 81 133 8.0 13.0 0.00 0.00 0.00 60 1011.6
20260904023026 83 102 2.0 6.0 0.00 0.00 0.00 74 1014.9
20260904022512 84 84 1.0 3.0 0.00 0.00 0.00 74 1014.8
20260904022007 84 105 0.0 2.0 0.00 0.00 0.00 73 1014.7
20260904021548 82 110 8.0 14.0 0.00 0.00 0.00 59 1011.5
20260904021508 84 105 0.0 3.0 0.00 0.00 0.00 72 1014.7
20260904021003 84 105 1.0 3.0 0.00 0.00 0.00 72 1014.5
20260904020503 85 103 1.0 4.0 0.00 0.00 0.00 72 1014.4
20260904020035 82 112 7.0 12.0 0.00 0.00 0.00 59 1011.3
20260904020008 85 167 0.0 4.0 0.00 0.00 0.00 71 1014.4
20260904015504 85 199 1.0 4.0 0.00 0.00 0.00 71 1014.3
20260904015006 85 223 0.0 4.0 0.00 0.00 0.00 71 1014.2
20260904014538 83 98 8.0 12.0 0.00 0.00 0.00 57 1011.1
20260904014514 85 167 0.0 4.0 0.00 0.00 0.00 70 1014.1
20260904014008 85 173 1.0 4.0 0.00 0.00 0.00 70 1014.1
20260904013507 85 120 0.0 3.0 0.00 0.00 0.00 69 1014.1
20260904013032 83 124 11.0 16.0 0.00 0.00 0.00 56 1010.8
20260904013022 85 200 1.0 5.0 0.00 0.00 0.00 69 1014.0
20260904012512 85 200 1.0 5.0 0.00 0.00 0.00 68 1014.0
20260904012010 85 192 1.0 5.0 0.00 0.00 0.00 68 1014.1
20260904011546 84 108 9.0 16.0 0.00 0.00 0.00 54 1010.7
20260904011527 85 189 0.0 5.0 0.00 0.00 0.00 67 1014.1
20260904011005 85 180 0.0 5.0 0.00 0.00 0.00 66 1014.0
20260904010503 86 154 1.0 5.0 0.00 0.00 0.00 66 1014.0
20260904010029 85 110 11.0 19.0 0.00 0.00 0.00 53 1010.6
20260904010006 86 208 0.0 3.0 0.00 0.00 0.00 65 1014.1
20260904005504 86 123 0.0 2.0 0.00 0.00 0.00 64 1014.0
20260904005004 86 161 0.0 2.0 0.00 0.00 0.00 63 1013.9
20260904004525 86 110 12.0 18.0 0.00 0.00 0.00 51 1010.5
20260904004512 86 161 0.0 2.0 0.00 0.00 0.00 63 1013.9
20260904004008 87 126 0.0 2.0 0.00 0.00 0.00 63 1013.9
20260904003506 87 173 0.0 4.0 0.00 0.00 0.00 63 1013.7
20260904003024 87 169 1.0 4.0 0.00 0.00 0.00 63 1013.6
20260904003022 87 160 9.0 22.0 0.00 0.00 0.00 48 1010.5
20260904002508 88 188 0.0 2.0 0.00 0.00 0.00 65 1013.7
20260904002010 88 188 0.0 2.0 0.00 0.00 0.00 65 1013.6
20260904001524 88 200 0.0 2.0 0.00 0.00 0.00 65 1013.6
20260904001520 88 96 14.0 19.0 0.00 0.00 0.00 48 1010.5
20260904001013 88 185 0.0 3.0 0.00 0.00 0.00 65 1013.5
20260904000515 89 172 0.0 3.0 0.00 0.00 0.00 65 1013.6
20260904000030 89 189 1.0 4.0 0.00 0.00 0.00 64 1013.6
20260904000019 89 117 13.0 19.0 0.00 0.00 0.00 47 1010.1
20260903235504 89 176 1.0 6.0 0.00 0.00 0.00 64 1013.7
20260903235004 90 172 2.0 6.0 0.00 0.00 0.00 64 1014.0
20260903234517 89 98 12.0 21.0 0.00 0.00 0.00 47 1010.3
20260903234510 90 205 3.0 9.0 0.00 0.00 0.00 63 1014.0
20260903234007 90 165 2.0 9.0 0.00 0.00 0.00 63 1014.0
20260903233507 91 154 3.0 9.0 0.00 0.00 0.00 63 1013.9
20260903233118 90 116 13.0 22.0 0.00 0.00 0.00 46 1010.1
20260903233013 91 214 3.0 8.0 0.00 0.00 0.00 62 1013.9
20260903232511 92 207 1.0 5.0 0.00 0.00 0.00 63 1013.9
20260903232009 92 166 2.0 5.0 0.00 0.00 0.00 62 1013.9
20260903231521 92 281 0.0 2.0 0.00 0.00 0.00 61 1013.9
20260903231515 92 121 11.0 22.0 0.00 0.00 0.00 43 1009.8
20260903231013 92 281 0.0 3.0 0.00 0.00 0.00 63 1013.9
20260903230513 92 286 1.0 3.0 0.00 0.00 0.00 61 1013.9
20260903230045 93 260 0.0 4.0 0.00 0.00 0.00 61 1014.0
20260903230015 93 136 13.0 21.0 0.00 0.00 0.00 42 1009.8
20260903225515 93 281 0.0 5.0 0.00 0.00 0.00 60 1014.0
20260903225015 93 299 1.0 5.0 0.00 0.00 0.00 59 1014.1
20260903224524 94 120 13.0 19.0 0.00 0.00 0.00 41 1009.6
20260903224507 94 250 1.0 3.0 0.00 0.00 0.00 58 1014.2
20260903224005 94 217 0.0 2.0 0.00 0.00 0.00 62 1014.1
20260903223505 95 235 0.0 5.0 0.00 0.00 0.00 61 1014.1
20260903223013 95 204 1.0 5.0 0.00 0.00 0.00 58 1014.1
20260903223006 95 115 9.0 18.0 0.00 0.00 0.00 41 1009.6
20260903222509 95 161 0.0 2.0 0.00 0.00 0.00 57 1014.1
20260903222008 95 150 0.0 5.0 0.00 0.00 0.00 59 1014.1
20260903221519 95 241 1.0 5.0 0.00 0.00 0.00 58 1014.1
20260903221502 94 122 14.0 21.0 0.00 0.00 0.00 42 1009.6
20260903221012 94 196 2.0 4.0 0.00 0.00 0.00 58 1014.0
20260903220519 94 192 1.0 3.0 0.00 0.00 0.00 57 1013.9
20260903220108 94 133 6.0 21.0 0.00 0.00 0.00 42 1009.7
20260903220026 95 268 1.0 4.0 0.00 0.00 0.00 58 1013.9
20260903215514 95 231 1.0 4.0 0.00 0.00 0.00 58 1013.9
20260903215013 95 281 1.0 7.0 0.00 0.00 0.00 56 1014.0
20260903214555 94 108 9.0 20.0 0.00 0.00 0.00 43 1009.6
20260903214537 95 180 3.0 7.0 0.00 0.00 0.00 58 1014.0
20260903214015 95 193 0.0 4.0 0.00 0.00 0.00 59 1014.0
20260903213505 95 274 1.0 6.0 0.00 0.00 0.00 57 1013.9
20260903213052 93 103 13.0 18.0 0.00 0.00 0.00 43 1009.7
20260903213018 96 190 1.0 6.0 0.00 0.00 0.00 57 1014.0
20260903212507 95 184 3.0 7.0 0.00 0.00 0.00 57 1014.0
20260903212008 95 188 3.0 7.0 0.00 0.00 0.00 57 1014.0
20260903211547 93 213 7.0 20.0 0.00 0.00 0.00 44 1009.8
20260903211516 95 169 2.0 7.0 0.00 0.00 0.00 57 1014.1
20260903211008 95 176 2.0 12.0 0.00 0.00 0.00 58 1014.1
20260903210511 95 172 5.0 12.0 0.00 0.00 0.00 57 1014.1
20260903210053 92 136 11.0 21.0 0.00 0.00 0.00 46 1010.1
20260903210024 95 173 0.0 5.0 0.00 0.00 0.00 57 1014.2
20260903205511 95 209 2.0 6.0 0.00 0.00 0.00 58 1014.2
20260903205011 95 184 1.0 6.0 0.00 0.00 0.00 57 1014.3
20260903204540 91 123 12.0 20.0 0.00 0.00 0.00 48 1010.2
20260903204528 95 200 2.0 7.0 0.00 0.00 0.00 56 1014.4
20260903204015 96 127 1.0 7.0 0.00 0.00 0.00 55 1014.3
20260903203516 96 224 2.0 6.0 0.00 0.00 0.00 58 1014.4
20260903203037 90 141 13.0 18.0 0.00 0.00 0.00 49 1010.4
20260903203030 95 181 3.0 6.0 0.00 0.00 0.00 56 1014.5
20260903202514 95 240 2.0 6.0 0.00 0.00 0.00 58 1014.5
20260903202004 95 84 2.0 11.0 0.00 0.00 0.00 56 1014.4
20260903201534 90 113 12.0 20.0 0.00 0.00 0.00 48 1010.5
20260903201517 95 180 3.0 11.0 0.00 0.00 0.00 57 1014.5